contact:dominique.lefevre@mio.osupytheas.fr, maurice.libes@osupytheas.fr, didier.mallarino@osupytheas.fr
Project:EMSO http://www.emso-fr.org/EMSO-France
Depth: 2436.0 m
Title:EMSO Ligure Ouest : Data MII capteur MICROCAT
DateTime_Computer,Latitude,Longitude,Temperature,Conductivity,Pressure,DateTime_Instrument
DateTime_Computer,Latitude,Longitude,degC,S m-1,dbar,DateTime_Instrument
2021-06-10T00:00:34Z,42.805,6.029,13.3027,4.60024,2470.156,2021-6-10T02:01:47Z
2021-06-10T00:03:37Z,42.805,6.029,13.3027,4.60024,2470.156,2021-6-10T02:04:50Z
2021-06-10T00:06:40Z,42.805,6.029,13.3023,4.60025,2470.124,2021-6-10T02:07:53Z
2021-06-10T00:09:43Z,42.805,6.029,13.3028,4.60029,2470.1,2021-6-10T02:10:57Z
2021-06-10T00:12:47Z,42.805,6.029,13.3031,4.60027,2470.171,2021-6-10T02:14:00Z
2021-06-10T00:15:50Z,42.805,6.029,13.3020,4.60029,2470.124,2021-6-10T02:17:03Z
2021-06-10T00:18:53Z,42.805,6.029,13.3028,4.60026,2470.133,2021-6-10T02:20:06Z
2021-06-10T00:21:56Z,42.805,6.029,13.3035,4.60017,2470.156,2021-6-10T02:23:09Z
2021-06-10T00:24:59Z,42.805,6.029,13.3021,4.60020,2470.124,2021-6-10T02:26:12Z
2021-06-10T00:28:02Z,42.805,6.029,13.3023,4.60024,2470.11,2021-6-10T02:29:15Z
2021-06-10T00:31:05Z,42.805,6.029,13.3024,4.60037,2470.11,2021-6-10T02:32:18Z
2021-06-10T00:34:08Z,42.805,6.029,13.3030,4.60034,2470.133,2021-6-10T02:35:22Z
2021-06-10T00:37:12Z,42.805,6.029,13.3055,4.60026,2470.11,2021-6-10T02:38:25Z
2021-06-10T00:40:15Z,42.805,6.029,13.3034,4.60035,2470.11,2021-6-10T02:41:28Z
2021-06-10T00:43:18Z,42.805,6.029,13.3072,4.60032,2470.087,2021-6-10T02:44:31Z
2021-06-10T00:46:21Z,42.805,6.029,13.3041,4.60023,2470.11,2021-6-10T02:47:34Z
2021-06-10T00:49:24Z,42.805,6.029,13.3075,4.60036,2470.077,2021-6-10T02:50:37Z
2021-06-10T00:52:27Z,42.805,6.029,13.3037,4.60020,2470.133,2021-6-10T02:53:40Z
2021-06-10T00:55:30Z,42.805,6.029,13.3016,4.60032,2470.133,2021-6-10T02:56:43Z
2021-06-10T00:58:33Z,42.805,6.029,13.3041,4.60047,2470.1,2021-6-10T02:59:47Z
2021-06-10T01:01:37Z,42.805,6.029,13.3039,4.60056,2470.124,2021-6-10T03:02:50Z
2021-06-10T01:04:40Z,42.805,6.029,13.3054,4.60040,2470.124,2021-6-10T03:05:53Z
2021-06-10T01:07:43Z,42.805,6.029,13.3006,4.60033,2470.11,2021-6-10T03:08:56Z
2021-06-10T01:10:46Z,42.805,6.029,13.2999,4.60033,2470.087,2021-6-10T03:11:59Z
2021-06-10T01:13:49Z,42.805,6.029,13.2998,4.60029,2470.087,2021-6-10T03:15:02Z
2021-06-10T01:16:52Z,42.805,6.029,13.2989,4.60027,2470.11,2021-6-10T03:18:05Z
2021-06-10T01:19:55Z,42.805,6.029,13.3002,4.60018,2470.11,2021-6-10T03:21:08Z
2021-06-10T01:22:58Z,42.805,6.029,13.3018,4.60023,2470.1,2021-6-10T03:24:12Z
2021-06-10T01:26:02Z,42.805,6.029,13.3008,4.60029,2470.087,2021-6-10T03:27:15Z
2021-06-10T01:29:05Z,42.805,6.029,13.3036,4.60042,2470.124,2021-6-10T03:30:18Z
2021-06-10T01:32:08Z,42.805,6.029,13.3031,4.60037,2470.087,2021-6-10T03:33:21Z
2021-06-10T01:35:11Z,42.805,6.029,13.3010,4.60020,2470.087,2021-6-10T03:36:24Z
2021-06-10T01:38:14Z,42.805,6.029,13.2988,4.60021,2470.133,2021-6-10T03:39:27Z
2021-06-10T01:41:17Z,42.805,6.029,13.2989,4.60014,2470.11,2021-6-10T03:42:30Z
2021-06-10T01:44:20Z,42.805,6.029,13.2991,4.60021,2470.11,2021-6-10T03:45:33Z
2021-06-10T01:47:23Z,42.805,6.029,13.2988,4.60017,2470.11,2021-6-10T03:48:36Z
2021-06-10T01:50:27Z,42.805,6.029,13.2989,4.60014,2470.087,2021-6-10T03:51:40Z
2021-06-10T01:53:30Z,42.805,6.029,13.2986,4.60009,2470.1,2021-6-10T03:54:43Z
2021-06-10T01:56:33Z,42.805,6.029,13.2991,4.60013,2470.1,2021-6-10T03:57:46Z
2021-06-10T01:59:36Z,42.805,6.029,13.2989,4.60015,2470.087,2021-6-10T04:00:49Z
2021-06-10T02:02:39Z,42.805,6.029,13.2986,4.60008,2470.087,2021-6-10T04:03:52Z
2021-06-10T02:05:42Z,42.805,6.029,13.2986,4.60009,2470.11,2021-6-10T04:06:55Z
2021-06-10T02:08:45Z,42.805,6.029,13.2985,4.59999,2470.11,2021-6-10T04:09:58Z
2021-06-10T02:11:48Z,42.805,6.029,13.2986,4.60005,2470.124,2021-6-10T04:13:01Z
2021-06-10T02:14:52Z,42.805,6.029,13.2990,4.60000,2470.1,2021-6-10T04:16:05Z
2021-06-10T02:17:55Z,42.805,6.029,13.2986,4.60002,2470.124,2021-6-10T04:19:08Z
2021-06-10T02:20:58Z,42.805,6.029,13.2982,4.59999,2470.087,2021-6-10T04:22:11Z
2021-06-10T02:24:01Z,42.805,6.029,13.2991,4.60001,2470.133,2021-6-10T04:25:14Z
2021-06-10T02:27:04Z,42.805,6.029,13.2987,4.60003,2470.124,2021-6-10T04:28:17Z
2021-06-10T02:30:07Z,42.805,6.029,13.2983,4.60010,2470.1,2021-6-10T04:31:20Z
2021-06-10T02:33:10Z,42.805,6.029,13.2988,4.60009,2470.063,2021-6-10T04:34:23Z
2021-06-10T02:36:13Z,42.805,6.029,13.2990,4.60008,2470.087,2021-6-10T04:37:26Z
2021-06-10T02:39:16Z,42.805,6.029,13.2990,4.60001,2470.124,2021-6-10T04:40:30Z
2021-06-10T02:42:20Z,42.805,6.029,13.2986,4.60001,2470.087,2021-6-10T04:43:33Z
2021-06-10T02:45:23Z,42.805,6.029,13.2986,4.59997,2470.124,2021-6-10T04:46:36Z
2021-06-10T02:48:26Z,42.805,6.029,13.2987,4.59998,2470.11,2021-6-10T04:49:39Z
2021-06-10T02:51:29Z,42.805,6.029,13.2989,4.59998,2470.11,2021-6-10T04:52:42Z
2021-06-10T02:54:32Z,42.805,6.029,13.2989,4.60001,2470.11,2021-6-10T04:55:45Z
2021-06-10T02:57:35Z,42.805,6.029,13.2986,4.59997,2470.1,2021-6-10T04:58:48Z
2021-06-10T03:00:38Z,42.805,6.029,13.2987,4.59997,2470.133,2021-6-10T05:01:51Z
2021-06-10T03:03:41Z,42.805,6.029,13.2989,4.59996,2470.087,2021-6-10T05:04:55Z
2021-06-10T03:06:45Z,42.805,6.029,13.2988,4.59996,2470.1,2021-6-10T05:07:58Z
2021-06-10T03:09:48Z,42.805,6.029,13.2986,4.59998,2470.147,2021-6-10T05:11:01Z
2021-06-10T03:12:51Z,42.805,6.029,13.2987,4.59999,2470.11,2021-6-10T05:14:04Z
2021-06-10T03:15:54Z,42.805,6.029,13.2986,4.59997,2470.11,2021-6-10T05:17:07Z
2021-06-10T03:18:57Z,42.805,6.029,13.2988,4.59996,2470.147,2021-6-10T05:20:10Z
2021-06-10T03:22:00Z,42.805,6.029,13.2987,4.59995,2470.133,2021-6-10T05:23:13Z
2021-06-10T03:25:03Z,42.805,6.029,13.2989,4.59997,2470.133,2021-6-10T05:26:16Z
2021-06-10T03:28:06Z,42.805,6.029,13.2987,4.59996,2470.147,2021-6-10T05:29:20Z
2021-06-10T03:31:10Z,42.805,6.029,13.2987,4.59996,2470.133,2021-6-10T05:32:23Z
2021-06-10T03:34:13Z,42.805,6.029,13.2986,4.59996,2470.147,2021-6-10T05:35:26Z
2021-06-10T03:37:16Z,42.805,6.029,13.2987,4.59996,2470.11,2021-6-10T05:38:29Z
2021-06-10T03:40:19Z,42.805,6.029,13.2985,4.59998,2470.147,2021-6-10T05:41:32Z
2021-06-10T03:43:22Z,42.805,6.029,13.2984,4.59997,2470.133,2021-6-10T05:44:35Z
2021-06-10T03:46:25Z,42.805,6.029,13.2991,4.59996,2470.147,2021-6-10T05:47:38Z
2021-06-10T03:49:28Z,42.805,6.029,13.2986,4.59996,2470.11,2021-6-10T05:50:41Z
2021-06-10T03:52:31Z,42.805,6.029,13.2988,4.59995,2470.147,2021-6-10T05:53:45Z
2021-06-10T03:55:35Z,42.805,6.029,13.2984,4.59995,2470.171,2021-6-10T05:56:48Z
2021-06-10T03:58:38Z,42.805,6.029,13.2984,4.59995,2470.147,2021-6-10T05:59:51Z
2021-06-10T04:01:41Z,42.805,6.029,13.2986,4.59994,2470.194,2021-6-10T06:02:54Z
2021-06-10T04:04:44Z,42.805,6.029,13.2984,4.59996,2470.11,2021-6-10T06:05:57Z
2021-06-10T04:07:47Z,42.805,6.029,13.2986,4.59996,2470.133,2021-6-10T06:09:00Z
2021-06-10T04:10:50Z,42.805,6.029,13.2987,4.59996,2470.156,2021-6-10T06:12:03Z
2021-06-10T04:13:53Z,42.805,6.029,13.2989,4.59995,2470.133,2021-6-10T06:15:06Z
2021-06-10T04:16:56Z,42.805,6.029,13.2987,4.59996,2470.156,2021-6-10T06:18:10Z
2021-06-10T04:20:00Z,42.805,6.029,13.2983,4.59994,2470.143,2021-6-10T06:21:13Z
2021-06-10T04:23:03Z,42.805,6.029,13.2988,4.59996,2470.133,2021-6-10T06:24:16Z
2021-06-10T04:26:06Z,42.805,6.029,13.2985,4.59996,2470.156,2021-6-10T06:27:19Z
2021-06-10T04:29:09Z,42.805,6.029,13.2983,4.59995,2470.133,2021-6-10T06:30:22Z
2021-06-10T04:32:12Z,42.805,6.029,13.2985,4.59997,2470.156,2021-6-10T06:33:25Z
2021-06-10T04:35:15Z,42.805,6.029,13.2987,4.59997,2470.18,2021-6-10T06:36:28Z
2021-06-10T04:38:18Z,42.805,6.029,13.2986,4.59997,2470.156,2021-6-10T06:39:31Z
2021-06-10T04:41:21Z,42.805,6.029,13.2987,4.59998,2470.147,2021-6-10T06:42:35Z
2021-06-10T04:44:25Z,42.805,6.029,13.2984,4.59996,2470.194,2021-6-10T06:45:38Z
2021-06-10T04:47:28Z,42.805,6.029,13.2990,4.60000,2470.18,2021-6-10T06:48:41Z
2021-06-10T04:50:31Z,42.805,6.029,13.2984,4.59996,2470.217,2021-6-10T06:51:44Z
2021-06-10T04:53:34Z,42.805,6.029,13.2983,4.59997,2470.18,2021-6-10T06:54:47Z
2021-06-10T04:56:37Z,42.805,6.029,13.2982,4.59996,2470.171,2021-6-10T06:57:50Z
2021-06-10T04:59:40Z,42.805,6.029,13.2986,4.59997,2470.194,2021-6-10T07:00:53Z
2021-06-10T05:02:43Z,42.805,6.029,13.2986,4.60003,2470.18,2021-6-10T07:03:56Z
2021-06-10T05:05:46Z,42.805,6.029,13.2986,4.59997,2470.203,2021-6-10T07:07:00Z
2021-06-10T05:08:50Z,42.805,6.029,13.2986,4.59997,2470.194,2021-6-10T07:10:03Z
2021-06-10T05:11:53Z,42.805,6.029,13.2989,4.59997,2470.203,2021-6-10T07:13:06Z
2021-06-10T05:14:56Z,42.805,6.029,13.2986,4.59996,2470.156,2021-6-10T07:16:09Z
2021-06-10T05:17:59Z,42.805,6.029,13.2989,4.59997,2470.171,2021-6-10T07:19:12Z
2021-06-10T05:21:02Z,42.805,6.029,13.2986,4.59995,2470.18,2021-6-10T07:22:15Z
2021-06-10T05:24:05Z,42.805,6.029,13.2990,4.59995,2470.171,2021-6-10T07:25:18Z
2021-06-10T05:27:08Z,42.805,6.029,13.2990,4.59996,2470.18,2021-6-10T07:28:21Z
2021-06-10T05:30:11Z,42.805,6.029,13.2987,4.59995,2470.203,2021-6-10T07:31:25Z
2021-06-10T05:33:15Z,42.805,6.029,13.2982,4.59997,2470.203,2021-6-10T07:34:28Z
2021-06-10T05:36:18Z,42.805,6.029,13.2989,4.59999,2470.18,2021-6-10T07:37:31Z
2021-06-10T05:39:21Z,42.805,6.029,13.2987,4.59997,2470.18,2021-6-10T07:40:34Z
2021-06-10T05:42:24Z,42.805,6.029,13.2991,4.59999,2470.18,2021-6-10T07:43:37Z
2021-06-10T05:45:27Z,42.805,6.029,13.2987,4.59996,2470.203,2021-6-10T07:46:40Z
2021-06-10T05:48:30Z,42.805,6.029,13.2988,4.59998,2470.203,2021-6-10T07:49:43Z
2021-06-10T05:51:33Z,42.805,6.029,13.2987,4.59999,2470.18,2021-6-10T07:52:46Z
2021-06-10T05:54:36Z,42.805,6.029,13.2984,4.60000,2470.194,2021-6-10T07:55:50Z
2021-06-10T05:57:40Z,42.805,6.029,13.2982,4.59996,2470.203,2021-6-10T07:58:53Z
2021-06-10T06:00:43Z,42.805,6.029,13.2986,4.59997,2470.203,2021-6-10T08:01:56Z
2021-06-10T06:03:46Z,42.805,6.029,13.2984,4.59997,2470.18,2021-6-10T08:04:59Z
2021-06-10T06:06:49Z,42.805,6.029,13.2983,4.59997,2470.18,2021-6-10T08:08:02Z
2021-06-10T06:09:52Z,42.805,6.029,13.2986,4.59999,2470.217,2021-6-10T08:11:05Z
2021-06-10T06:12:55Z,42.805,6.029,13.2990,4.59997,2470.217,2021-6-10T08:14:08Z
2021-06-10T06:15:58Z,42.805,6.029,13.2986,4.59996,2470.217,2021-6-10T08:17:11Z
2021-06-10T06:19:01Z,42.805,6.029,13.2981,4.59996,2470.227,2021-6-10T08:20:15Z
2021-06-10T06:22:05Z,42.805,6.029,13.2984,4.59996,2470.203,2021-6-10T08:23:18Z
2021-06-10T06:25:08Z,42.805,6.029,13.2982,4.59996,2470.227,2021-6-10T08:26:21Z
2021-06-10T06:28:11Z,42.805,6.029,13.2981,4.59998,2470.227,2021-6-10T08:29:24Z
2021-06-10T06:31:14Z,42.805,6.029,13.2987,4.59996,2470.203,2021-6-10T08:32:27Z
2021-06-10T06:34:17Z,42.805,6.029,13.2986,4.59996,2470.217,2021-6-10T08:35:30Z
2021-06-10T06:37:20Z,42.805,6.029,13.2983,4.59998,2470.217,2021-6-10T08:38:33Z
2021-06-10T06:40:23Z,42.805,6.029,13.2987,4.59996,2470.203,2021-6-10T08:41:36Z
2021-06-10T06:43:26Z,42.805,6.029,13.2986,4.59996,2470.217,2021-6-10T08:44:40Z
2021-06-10T06:46:30Z,42.805,6.029,13.2983,4.59996,2470.203,2021-6-10T08:47:43Z
2021-06-10T06:49:33Z,42.805,6.029,13.2990,4.59996,2470.203,2021-6-10T08:50:46Z
2021-06-10T06:52:36Z,42.805,6.029,13.2986,4.59996,2470.217,2021-6-10T08:53:49Z
2021-06-10T06:55:39Z,42.805,6.029,13.2985,4.59996,2470.166,2021-6-10T08:56:52Z
2021-06-10T06:58:42Z,42.805,6.029,13.2983,4.59995,2470.227,2021-6-10T08:59:55Z
2021-06-10T07:01:45Z,42.805,6.029,13.2983,4.59997,2470.217,2021-6-10T09:02:58Z
2021-06-10T07:04:48Z,42.805,6.029,13.2986,4.59996,2470.264,2021-6-10T09:06:01Z
2021-06-10T07:07:51Z,42.805,6.029,13.2985,4.59997,2470.24,2021-6-10T09:09:04Z
2021-06-10T07:10:54Z,42.805,6.029,13.2983,4.59996,2470.18,2021-6-10T09:12:08Z
2021-06-10T07:13:58Z,42.805,6.029,13.2986,4.59997,2470.217,2021-6-10T09:15:11Z
2021-06-10T07:17:01Z,42.805,6.029,13.2988,4.59996,2470.217,2021-6-10T09:18:14Z
2021-06-10T07:20:04Z,42.805,6.029,13.2987,4.59997,2470.203,2021-6-10T09:21:17Z
2021-06-10T07:23:07Z,42.805,6.029,13.2988,4.59999,2470.227,2021-6-10T09:24:20Z
2021-06-10T07:26:10Z,42.805,6.029,13.2987,4.59997,2470.24,2021-6-10T09:27:23Z
2021-06-10T07:29:13Z,42.805,6.029,13.2986,4.60003,2470.203,2021-6-10T09:30:26Z
2021-06-10T07:32:16Z,42.805,6.029,13.2985,4.59996,2470.217,2021-6-10T09:33:29Z
2021-06-10T07:35:19Z,42.805,6.029,13.2984,4.59996,2470.194,2021-6-10T09:36:33Z
2021-06-10T07:38:23Z,42.805,6.029,13.2985,4.59996,2470.203,2021-6-10T09:39:36Z
2021-06-10T07:41:26Z,42.805,6.029,13.2986,4.59999,2470.203,2021-6-10T09:42:39Z
2021-06-10T07:44:29Z,42.805,6.029,13.2983,4.59995,2470.227,2021-6-10T09:45:42Z
2021-06-10T07:47:32Z,42.805,6.029,13.2990,4.59996,2470.203,2021-6-10T09:48:45Z
2021-06-10T07:50:35Z,42.805,6.029,13.2986,4.59998,2470.203,2021-6-10T09:51:48Z
2021-06-10T07:53:38Z,42.805,6.029,13.2990,4.59997,2470.227,2021-6-10T09:54:51Z
2021-06-10T07:56:41Z,42.805,6.029,13.2982,4.59995,2470.24,2021-6-10T09:57:54Z
2021-06-10T07:59:44Z,42.805,6.029,13.2985,4.59996,2470.217,2021-6-10T10:00:58Z
2021-06-10T08:02:48Z,42.805,6.029,13.2985,4.59996,2470.24,2021-6-10T10:04:01Z
2021-06-10T08:05:51Z,42.805,6.029,13.2988,4.59996,2470.203,2021-6-10T10:07:04Z
2021-06-10T08:08:54Z,42.805,6.029,13.2986,4.59995,2470.24,2021-6-10T10:10:07Z
2021-06-10T08:11:57Z,42.805,6.029,13.2987,4.59996,2470.217,2021-6-10T10:13:10Z
2021-06-10T08:15:00Z,42.805,6.029,13.2986,4.59995,2470.217,2021-6-10T10:16:13Z
2021-06-10T08:18:03Z,42.805,6.029,13.2986,4.59997,2470.203,2021-6-10T10:19:16Z
2021-06-10T08:21:06Z,42.805,6.029,13.2985,4.59997,2470.203,2021-6-10T10:22:19Z
2021-06-10T08:24:09Z,42.805,6.029,13.2986,4.59996,2470.203,2021-6-10T10:25:23Z
2021-06-10T08:27:13Z,42.805,6.029,13.2986,4.59996,2470.217,2021-6-10T10:28:26Z
2021-06-10T08:30:16Z,42.805,6.029,13.2986,4.59994,2470.203,2021-6-10T10:31:29Z
2021-06-10T08:33:19Z,42.805,6.029,13.2986,4.59996,2470.203,2021-6-10T10:34:32Z
2021-06-10T08:36:22Z,42.805,6.029,13.2990,4.59996,2470.24,2021-6-10T10:37:35Z
2021-06-10T08:39:25Z,42.805,6.029,13.2985,4.59995,2470.166,2021-6-10T10:40:38Z
2021-06-10T08:42:28Z,42.805,6.029,13.2986,4.59999,2470.203,2021-6-10T10:43:41Z
2021-06-10T08:45:31Z,42.805,6.029,13.2987,4.59996,2470.203,2021-6-10T10:46:44Z
2021-06-10T08:48:34Z,42.805,6.029,13.2983,4.59998,2470.18,2021-6-10T10:49:48Z
2021-06-10T08:51:38Z,42.805,6.029,13.2987,4.59996,2470.217,2021-6-10T10:52:51Z
2021-06-10T08:54:41Z,42.805,6.029,13.2985,4.59993,2470.24,2021-6-10T10:55:54Z
2021-06-10T08:57:44Z,42.805,6.029,13.2989,4.59995,2470.217,2021-6-10T10:58:57Z
2021-06-10T09:00:47Z,42.805,6.029,13.2982,4.59994,2470.227,2021-6-10T11:02:00Z
2021-06-10T09:03:50Z,42.805,6.029,13.2986,4.59994,2470.227,2021-6-10T11:05:03Z
2021-06-10T09:06:53Z,42.805,6.029,13.2984,4.59997,2470.203,2021-6-10T11:08:06Z
2021-06-10T09:09:56Z,42.805,6.029,13.2983,4.59996,2470.217,2021-6-10T11:11:10Z
2021-06-10T09:13:00Z,42.805,6.029,13.2983,4.59996,2470.203,2021-6-10T11:14:13Z
2021-06-10T09:16:03Z,42.805,6.029,13.2983,4.59994,2470.203,2021-6-10T11:17:16Z
2021-06-10T09:19:06Z,42.805,6.029,13.2985,4.59994,2470.203,2021-6-10T11:20:19Z
2021-06-10T09:22:09Z,42.805,6.029,13.2983,4.59997,2470.217,2021-6-10T11:23:22Z
2021-06-10T09:25:12Z,42.805,6.029,13.2986,4.59996,2470.227,2021-6-10T11:26:25Z
2021-06-10T09:28:15Z,42.805,6.029,13.2984,4.59998,2470.194,2021-6-10T11:29:28Z
2021-06-10T09:31:18Z,42.805,6.029,13.2986,4.60002,2470.194,2021-6-10T11:32:31Z
2021-06-10T09:34:21Z,42.805,6.029,13.2985,4.59997,2470.18,2021-6-10T11:35:35Z
2021-06-10T09:37:25Z,42.805,6.029,13.2982,4.59997,2470.203,2021-6-10T11:38:38Z
2021-06-10T09:40:28Z,42.805,6.029,13.2989,4.59997,2470.217,2021-6-10T11:41:41Z
2021-06-10T09:43:31Z,42.805,6.029,13.2983,4.59999,2470.166,2021-6-10T11:44:44Z
2021-06-10T09:46:34Z,42.805,6.029,13.2988,4.59994,2470.194,2021-6-10T11:47:47Z
2021-06-10T09:49:37Z,42.805,6.029,13.2989,4.59997,2470.18,2021-6-10T11:50:50Z
2021-06-10T09:52:40Z,42.805,6.029,13.2989,4.59996,2470.18,2021-6-10T11:53:53Z
2021-06-10T09:55:43Z,42.805,6.029,13.2983,4.59994,2470.203,2021-6-10T11:56:56Z
2021-06-10T09:58:46Z,42.805,6.029,13.2985,4.60001,2470.217,2021-6-10T12:00:00Z
2021-06-10T10:01:50Z,42.805,6.029,13.2984,4.60002,2470.203,2021-6-10T12:03:03Z
2021-06-10T10:04:53Z,42.805,6.029,13.2986,4.59997,2470.194,2021-6-10T12:06:06Z
2021-06-10T10:07:56Z,42.805,6.029,13.2982,4.59999,2470.18,2021-6-10T12:09:09Z
2021-06-10T10:10:59Z,42.805,6.029,13.2987,4.59995,2470.194,2021-6-10T12:12:12Z
2021-06-10T10:14:02Z,42.805,6.029,13.2985,4.59997,2470.203,2021-6-10T12:15:15Z
2021-06-10T10:17:05Z,42.805,6.029,13.2986,4.59995,2470.217,2021-6-10T12:18:18Z
2021-06-10T10:20:08Z,42.805,6.029,13.2985,4.59993,2470.18,2021-6-10T12:21:21Z
2021-06-10T10:23:11Z,42.805,6.029,13.2985,4.59996,2470.18,2021-6-10T12:24:25Z
2021-06-10T10:26:15Z,42.805,6.029,13.2990,4.59993,2470.203,2021-6-10T12:27:28Z
2021-06-10T10:29:18Z,42.805,6.029,13.2986,4.59996,2470.203,2021-6-10T12:30:31Z
2021-06-10T10:32:21Z,42.805,6.029,13.2988,4.59994,2470.18,2021-6-10T12:33:34Z
2021-06-10T10:35:24Z,42.805,6.029,13.2987,4.59993,2470.203,2021-6-10T12:36:37Z
2021-06-10T10:38:27Z,42.805,6.029,13.2986,4.60001,2470.18,2021-6-10T12:39:40Z
2021-06-10T10:41:30Z,42.805,6.029,13.2987,4.59999,2470.217,2021-6-10T12:42:43Z
2021-06-10T10:44:33Z,42.805,6.029,13.2983,4.59993,2470.156,2021-6-10T12:45:47Z
2021-06-10T10:47:37Z,42.805,6.029,13.2982,4.59997,2470.133,2021-6-10T12:48:50Z
2021-06-10T10:50:40Z,42.805,6.029,13.2986,4.60000,2470.18,2021-6-10T12:51:53Z
2021-06-10T10:53:43Z,42.805,6.029,13.2983,4.59997,2470.18,2021-6-10T12:54:56Z
2021-06-10T10:56:46Z,42.805,6.029,13.2982,4.59996,2470.171,2021-6-10T12:57:59Z
2021-06-10T10:59:49Z,42.805,6.029,13.2983,4.59996,2470.203,2021-6-10T13:01:02Z
2021-06-10T11:02:52Z,42.805,6.029,13.2982,4.59994,2470.194,2021-6-10T13:04:05Z
2021-06-10T11:05:55Z,42.805,6.029,13.2984,4.59993,2470.171,2021-6-10T13:07:08Z
2021-06-10T11:08:58Z,42.805,6.029,13.2986,4.59991,2470.18,2021-6-10T13:10:12Z
2021-06-10T11:12:02Z,42.805,6.029,13.2986,4.59995,2470.18,2021-6-10T13:13:15Z
2021-06-10T11:15:05Z,42.805,6.029,13.2986,4.59996,2470.217,2021-6-10T13:16:18Z
2021-06-10T11:18:08Z,42.805,6.029,13.2983,4.59996,2470.194,2021-6-10T13:19:21Z
2021-06-10T11:21:11Z,42.805,6.029,13.2980,4.59995,2470.156,2021-6-10T13:22:24Z
2021-06-10T11:24:14Z,42.805,6.029,13.2986,4.59995,2470.18,2021-6-10T13:25:27Z
2021-06-10T11:27:17Z,42.805,6.029,13.2985,4.59994,2470.194,2021-6-10T13:28:30Z
2021-06-10T11:30:20Z,42.805,6.029,13.2986,4.59995,2470.203,2021-6-10T13:31:33Z
2021-06-10T11:33:23Z,42.805,6.029,13.2986,4.59996,2470.194,2021-6-10T13:34:37Z
2021-06-10T11:36:27Z,42.805,6.029,13.2985,4.59995,2470.156,2021-6-10T13:37:40Z
2021-06-10T11:39:30Z,42.805,6.029,13.2985,4.60003,2470.194,2021-6-10T13:40:43Z
2021-06-10T11:42:33Z,42.805,6.029,13.2990,4.59999,2470.156,2021-6-10T13:43:46Z
2021-06-10T11:45:36Z,42.805,6.029,13.2988,4.59996,2470.194,2021-6-10T13:46:49Z
2021-06-10T11:48:39Z,42.805,6.029,13.2983,4.59993,2470.217,2021-6-10T13:49:52Z
2021-06-10T11:51:42Z,42.805,6.029,13.2983,4.60001,2470.217,2021-6-10T13:52:55Z
2021-06-10T11:54:45Z,42.805,6.029,13.2983,4.59997,2470.203,2021-6-10T13:55:58Z
2021-06-10T11:57:48Z,42.805,6.029,13.2986,4.59996,2470.156,2021-6-10T13:59:02Z
2021-06-10T12:00:52Z,42.805,6.029,13.2987,4.59998,2470.171,2021-6-10T14:02:05Z
2021-06-10T12:03:55Z,42.805,6.029,13.2988,4.59999,2470.156,2021-6-10T14:05:08Z
2021-06-10T12:06:58Z,42.805,6.029,13.2989,4.59996,2470.166,2021-6-10T14:08:11Z
2021-06-10T12:10:01Z,42.805,6.029,13.2982,4.59996,2470.166,2021-6-10T14:11:14Z
2021-06-10T12:13:04Z,42.805,6.029,13.2983,4.59994,2470.156,2021-6-10T14:14:17Z
2021-06-10T12:16:07Z,42.805,6.029,13.2986,4.60000,2470.156,2021-6-10T14:17:20Z
2021-06-10T12:19:10Z,42.805,6.029,13.2984,4.59993,2470.171,2021-6-10T14:20:23Z
2021-06-10T12:22:14Z,42.805,6.029,13.2986,4.59994,2470.18,2021-6-10T14:23:27Z
2021-06-10T12:25:17Z,42.805,6.029,13.2986,4.59994,2470.156,2021-6-10T14:26:30Z
2021-06-10T12:28:20Z,42.805,6.029,13.2982,4.59998,2470.171,2021-6-10T14:29:33Z
2021-06-10T12:31:23Z,42.805,6.029,13.2982,4.59998,2470.156,2021-6-10T14:32:36Z
2021-06-10T12:34:26Z,42.805,6.029,13.2985,4.59994,2470.171,2021-6-10T14:35:39Z
2021-06-10T12:37:29Z,42.805,6.029,13.2986,4.60002,2470.156,2021-6-10T14:38:42Z
2021-06-10T12:40:32Z,42.805,6.029,13.2987,4.59994,2470.194,2021-6-10T14:41:45Z
2021-06-10T12:43:35Z,42.805,6.029,13.2986,4.59993,2470.194,2021-6-10T14:44:49Z
2021-06-10T12:46:39Z,42.805,6.029,13.2983,4.59994,2470.194,2021-6-10T14:47:52Z
2021-06-10T12:49:42Z,42.805,6.029,13.2986,4.59993,2470.171,2021-6-10T14:50:55Z
2021-06-10T12:52:45Z,42.805,6.029,13.2983,4.60000,2470.171,2021-6-10T14:53:58Z
2021-06-10T12:55:48Z,42.805,6.029,13.2983,4.59996,2470.147,2021-6-10T14:57:01Z
2021-06-10T12:58:51Z,42.805,6.029,13.2986,4.59997,2470.133,2021-6-10T15:00:04Z
2021-06-10T13:01:54Z,42.805,6.029,13.2986,4.60003,2470.133,2021-6-10T15:03:07Z
2021-06-10T13:04:57Z,42.805,6.029,13.2986,4.59999,2470.133,2021-6-10T15:06:10Z
2021-06-10T13:08:00Z,42.805,6.029,13.2985,4.59999,2470.156,2021-6-10T15:09:14Z
2021-06-10T13:11:04Z,42.805,6.029,13.2985,4.59999,2470.18,2021-6-10T15:12:17Z
2021-06-10T13:14:07Z,42.805,6.029,13.2990,4.59995,2470.171,2021-6-10T15:15:20Z
2021-06-10T13:17:10Z,42.805,6.029,13.2984,4.59995,2470.156,2021-6-10T15:18:23Z
2021-06-10T13:20:13Z,42.805,6.029,13.2986,4.59996,2470.217,2021-6-10T15:21:26Z
2021-06-10T13:23:16Z,42.805,6.029,13.2984,4.59994,2470.18,2021-6-10T15:24:29Z
2021-06-10T13:26:19Z,42.805,6.029,13.2982,4.60003,2470.133,2021-6-10T15:27:32Z
2021-06-10T13:29:22Z,42.805,6.029,13.2981,4.59999,2470.156,2021-6-10T15:30:35Z
2021-06-10T13:32:25Z,42.805,6.029,13.2983,4.60003,2470.194,2021-6-10T15:33:39Z
2021-06-10T13:35:29Z,42.805,6.029,13.2985,4.59998,2470.133,2021-6-10T15:36:42Z
2021-06-10T13:38:32Z,42.805,6.029,13.2987,4.59994,2470.171,2021-6-10T15:39:45Z
2021-06-10T13:41:35Z,42.805,6.029,13.2985,4.60003,2470.156,2021-6-10T15:42:48Z
2021-06-10T13:44:38Z,42.805,6.029,13.2983,4.59996,2470.147,2021-6-10T15:45:51Z
2021-06-10T13:47:41Z,42.805,6.029,13.2984,4.60003,2470.156,2021-6-10T15:48:54Z
2021-06-10T13:50:44Z,42.805,6.029,13.2987,4.59996,2470.156,2021-6-10T15:51:57Z
2021-06-10T13:53:47Z,42.805,6.029,13.2990,4.59997,2470.194,2021-6-10T15:55:01Z
2021-06-10T13:56:50Z,42.805,6.029,13.2990,4.59994,2470.171,2021-6-10T15:58:04Z
2021-06-10T13:59:54Z,42.805,6.029,13.2994,4.59994,2470.156,2021-6-10T16:01:07Z
2021-06-10T14:02:57Z,42.805,6.029,13.2988,4.59993,2470.156,2021-6-10T16:04:10Z
2021-06-10T14:06:00Z,42.805,6.029,13.2985,4.59995,2470.194,2021-6-10T16:07:13Z
2021-06-10T14:09:03Z,42.805,6.029,13.2986,4.59996,2470.203,2021-6-10T16:10:16Z
2021-06-10T14:12:06Z,42.805,6.029,13.2986,4.59994,2470.18,2021-6-10T16:13:19Z
2021-06-10T14:15:09Z,42.805,6.029,13.2984,4.59994,2470.203,2021-6-10T16:16:22Z
2021-06-10T14:18:12Z,42.805,6.029,13.2990,4.59992,2470.217,2021-6-10T16:19:26Z
2021-06-10T14:21:15Z,42.805,6.029,13.2984,4.59992,2470.18,2021-6-10T16:22:29Z
2021-06-10T14:24:19Z,42.805,6.029,13.2986,4.59992,2470.194,2021-6-10T16:25:32Z
2021-06-10T14:27:22Z,42.805,6.029,13.2989,4.59992,2470.156,2021-6-10T16:28:35Z
2021-06-10T14:30:25Z,42.805,6.029,13.2987,4.59996,2470.18,2021-6-10T16:31:38Z
2021-06-10T14:33:28Z,42.805,6.029,13.2986,4.60005,2470.194,2021-6-10T16:34:41Z
2021-06-10T14:36:31Z,42.805,6.029,13.2989,4.59995,2470.194,2021-6-10T16:37:44Z
2021-06-10T14:39:34Z,42.805,6.029,13.2990,4.59998,2470.194,2021-6-10T16:40:47Z
2021-06-10T14:42:37Z,42.805,6.029,13.2987,4.60011,2470.18,2021-6-10T16:43:51Z
2021-06-10T14:45:41Z,42.805,6.029,13.2991,4.59997,2470.171,2021-6-10T16:46:54Z
2021-06-10T14:48:44Z,42.805,6.029,13.2985,4.59999,2470.18,2021-6-10T16:49:57Z
2021-06-10T14:51:47Z,42.805,6.029,13.2990,4.59996,2470.18,2021-6-10T16:53:00Z
2021-06-10T14:54:50Z,42.805,6.029,13.2989,4.59996,2470.18,2021-6-10T16:56:03Z
2021-06-10T14:57:53Z,42.805,6.029,13.2990,4.59999,2470.217,2021-6-10T16:59:06Z
2021-06-10T15:00:56Z,42.805,6.029,13.2989,4.60001,2470.203,2021-6-10T17:02:09Z
2021-06-10T15:03:59Z,42.805,6.029,13.2990,4.59996,2470.203,2021-6-10T17:05:12Z
2021-06-10T15:07:02Z,42.805,6.029,13.2987,4.60002,2470.194,2021-6-10T17:08:16Z
2021-06-10T15:10:06Z,42.805,6.029,13.2987,4.59999,2470.24,2021-6-10T17:11:19Z